Year,Month,Day,Hour,Minute,Value (Times are PST for temperature in C)
2009,08,20,00,00,20.70
2009,08,20,00,01,20.70
2009,08,20,00,02,20.70
2009,08,20,00,03,20.80
2009,08,20,00,04,20.80
2009,08,20,00,05,20.90
2009,08,20,00,06,20.90
2009,08,20,00,07,21.00
2009,08,20,00,08,21.00
2009,08,20,00,09,21.10
2009,08,20,00,10,21.10
2009,08,20,00,11,21.20
2009,08,20,00,12,21.20
2009,08,20,00,13,21.20
2009,08,20,00,14,21.20
2009,08,20,00,15,21.20
2009,08,20,00,16,21.20
2009,08,20,00,17,21.20
2009,08,20,00,18,21.20
2009,08,20,00,19,21.10
2009,08,20,00,20,21.10
2009,08,20,00,21,21.10
2009,08,20,00,22,21.10
2009,08,20,00,23,21.10
2009,08,20,00,24,21.00
2009,08,20,00,25,21.00
2009,08,20,00,26,20.90
2009,08,20,00,27,20.90
2009,08,20,00,28,20.90
2009,08,20,00,29,20.90
2009,08,20,00,30,20.90
2009,08,20,00,31,20.90
2009,08,20,00,32,20.90
2009,08,20,00,33,20.80
2009,08,20,00,34,20.80
2009,08,20,00,35,20.80
2009,08,20,00,36,20.70
2009,08,20,00,37,20.70
2009,08,20,00,38,20.70
2009,08,20,00,39,20.60
2009,08,20,00,40,20.60
2009,08,20,00,41,20.60
2009,08,20,00,42,20.60
2009,08,20,00,43,20.50
2009,08,20,00,44,20.50
2009,08,20,00,45,20.50
2009,08,20,00,46,20.40
2009,08,20,00,47,20.40
2009,08,20,00,48,20.30
2009,08,20,00,49,20.30
2009,08,20,00,50,20.30
2009,08,20,00,51,20.30
2009,08,20,00,52,20.30
2009,08,20,00,53,20.30
2009,08,20,00,54,20.30
2009,08,20,00,55,20.30
2009,08,20,00,56,20.20
2009,08,20,00,57,20.20
2009,08,20,00,58,20.20
2009,08,20,00,59,20.20
2009,08,20,01,00,20.20
2009,08,20,01,01,20.20
2009,08,20,01,02,20.20
2009,08,20,01,03,20.20
2009,08,20,01,04,20.20
2009,08,20,01,05,20.20
2009,08,20,01,06,20.20
2009,08,20,01,07,20.20
2009,08,20,01,08,20.30
2009,08,20,01,09,20.30
2009,08,20,01,10,20.30
2009,08,20,01,11,20.30
2009,08,20,01,12,20.30
2009,08,20,01,13,20.30
2009,08,20,01,14,20.20
2009,08,20,01,15,20.20
2009,08,20,01,16,20.20
2009,08,20,01,17,20.20
2009,08,20,01,18,20.20
2009,08,20,01,19,20.20
2009,08,20,01,20,20.20
2009,08,20,01,21,20.20
2009,08,20,01,22,20.20
2009,08,20,01,23,20.10
2009,08,20,01,24,20.10
2009,08,20,01,25,20.10
2009,08,20,01,26,20.10
2009,08,20,01,27,20.10
2009,08,20,01,28,20.10
2009,08,20,01,29,20.10
2009,08,20,01,30,20.10
2009,08,20,01,31,20.10
2009,08,20,01,32,20.10
2009,08,20,01,33,20.10
2009,08,20,01,34,20.10
2009,08,20,01,35,20.10
2009,08,20,01,36,20.00
2009,08,20,01,37,20.00
2009,08,20,01,38,20.00
2009,08,20,01,39,19.90
2009,08,20,01,40,19.90
2009,08,20,01,41,19.90
2009,08,20,01,42,19.90
2009,08,20,01,43,19.90
2009,08,20,01,44,19.90
2009,08,20,01,45,19.90
2009,08,20,01,46,19.80
2009,08,20,01,47,19.80
2009,08,20,01,48,19.80
2009,08,20,01,49,19.80
2009,08,20,01,50,19.80
2009,08,20,01,51,19.80
2009,08,20,01,52,19.80
2009,08,20,01,53,19.80
2009,08,20,01,54,19.80
2009,08,20,01,55,19.80
2009,08,20,01,56,19.80
2009,08,20,01,57,19.70
2009,08,20,01,58,19.70
2009,08,20,01,59,19.70
2009,08,20,02,00,19.70
2009,08,20,02,01,19.70
2009,08,20,02,02,19.70
2009,08,20,02,03,19.60
2009,08,20,02,04,19.60
2009,08,20,02,05,19.60
2009,08,20,02,06,19.60
2009,08,20,02,07,19.60
2009,08,20,02,08,19.60
2009,08,20,02,09,19.50
2009,08,20,02,10,19.50
2009,08,20,02,11,19.50
2009,08,20,02,12,19.40
2009,08,20,02,13,19.40
2009,08,20,02,14,19.40
2009,08,20,02,15,19.40
2009,08,20,02,16,19.40
2009,08,20,02,17,19.40
2009,08,20,02,18,19.40
2009,08,20,02,19,19.40
2009,08,20,02,20,19.40
2009,08,20,02,21,19.40
2009,08,20,02,22,19.30
2009,08,20,02,23,19.30
2009,08,20,02,24,19.30
2009,08,20,02,25,19.30
2009,08,20,02,26,19.30
2009,08,20,02,27,19.30
2009,08,20,02,28,19.30
2009,08,20,02,29,19.30
2009,08,20,02,30,19.20
2009,08,20,02,31,19.20
2009,08,20,02,32,19.20
2009,08,20,02,33,19.20
2009,08,20,02,34,19.20
2009,08,20,02,35,19.20
2009,08,20,02,36,19.30
2009,08,20,02,37,19.30
2009,08,20,02,38,19.30
2009,08,20,02,39,19.30
2009,08,20,02,40,19.30
2009,08,20,02,41,19.30
2009,08,20,02,42,19.40
2009,08,20,02,43,19.40
2009,08,20,02,44,19.40
2009,08,20,02,45,19.40
2009,08,20,02,46,19.40
2009,08,20,02,47,19.50
2009,08,20,02,48,19.50
2009,08,20,02,49,19.60
2009,08,20,02,50,19.60
2009,08,20,02,51,19.60
2009,08,20,02,52,19.60
2009,08,20,02,53,19.60
2009,08,20,02,54,19.60
2009,08,20,02,55,19.60
2009,08,20,02,56,19.70
2009,08,20,02,57,19.70
2009,08,20,02,58,19.60
2009,08,20,02,59,19.60
2009,08,20,03,00,19.60
2009,08,20,03,01,19.60
2009,08,20,03,02,19.60
2009,08,20,03,03,19.60
2009,08,20,03,04,19.60
2009,08,20,03,05,19.60
2009,08,20,03,06,19.60
2009,08,20,03,07,19.60
2009,08,20,03,08,19.60
2009,08,20,03,09,19.60
2009,08,20,03,10,19.60
2009,08,20,03,11,19.50
2009,08,20,03,12,19.50
2009,08,20,03,13,19.50
2009,08,20,03,14,19.50
2009,08,20,03,15,19.40
2009,08,20,03,16,19.40
2009,08,20,03,17,19.40
2009,08,20,03,18,19.40
2009,08,20,03,19,19.40
2009,08,20,03,20,19.40
2009,08,20,03,21,19.30
2009,08,20,03,22,19.30
2009,08,20,03,23,19.30
2009,08,20,03,24,19.30
2009,08,20,03,25,19.30
2009,08,20,03,26,19.30
2009,08,20,03,27,19.30
2009,08,20,03,28,19.40
2009,08,20,03,29,19.40
2009,08,20,03,30,19.40
2009,08,20,03,31,19.40
2009,08,20,03,32,19.40
2009,08,20,03,33,19.40
2009,08,20,03,34,19.40
2009,08,20,03,35,19.40
2009,08,20,03,36,19.50
2009,08,20,03,37,19.50
2009,08,20,03,38,19.50
2009,08,20,03,39,19.60
2009,08,20,03,40,19.60
2009,08,20,03,41,19.60
2009,08,20,03,42,19.60
2009,08,20,03,43,19.70
2009,08,20,03,44,19.60
2009,08,20,03,45,19.60
2009,08,20,03,46,19.60
2009,08,20,03,47,19.60
2009,08,20,03,48,19.60
2009,08,20,03,49,19.70
2009,08,20,03,50,19.70
2009,08,20,03,51,19.80
2009,08,20,03,52,19.80
2009,08,20,03,53,19.80
2009,08,20,03,54,19.80
2009,08,20,03,55,19.80
2009,08,20,03,56,19.80
2009,08,20,03,57,19.80
2009,08,20,03,58,19.80
2009,08,20,03,59,19.80
2009,08,20,04,00,19.80
2009,08,20,04,01,19.80
2009,08,20,04,02,19.80
2009,08,20,04,03,19.80
2009,08,20,04,04,19.80
2009,08,20,04,05,19.80
2009,08,20,04,06,19.80
2009,08,20,04,07,19.90
2009,08,20,04,08,19.90
2009,08,20,04,09,19.90
2009,08,20,04,10,19.90
2009,08,20,04,11,19.90
2009,08,20,04,12,19.90
2009,08,20,04,13,19.90
2009,08,20,04,14,19.80
2009,08,20,04,15,19.80
2009,08,20,04,16,19.80
2009,08,20,04,17,19.70
2009,08,20,04,18,19.70
2009,08,20,04,19,19.70
2009,08,20,04,20,19.70
2009,08,20,04,21,19.70
2009,08,20,04,22,19.70
2009,08,20,04,23,19.70
2009,08,20,04,24,19.70
2009,08,20,04,25,19.70
2009,08,20,04,26,19.70
2009,08,20,04,27,19.70
2009,08,20,04,28,19.60
2009,08,20,04,29,19.60
2009,08,20,04,30,19.60
2009,08,20,04,31,19.60
2009,08,20,04,32,19.60
2009,08,20,04,33,19.60
2009,08,20,04,34,19.60
2009,08,20,04,35,19.60
2009,08,20,04,36,19.60
2009,08,20,04,37,19.60
2009,08,20,04,38,19.60
2009,08,20,04,39,19.70
2009,08,20,04,40,19.70
2009,08,20,04,41,19.70
2009,08,20,04,42,19.70
2009,08,20,04,43,19.70
2009,08,20,04,44,19.70
2009,08,20,04,45,19.70
2009,08,20,04,46,19.80
2009,08,20,04,47,19.80
2009,08,20,04,48,19.80
2009,08,20,04,49,19.90
2009,08,20,04,50,19.90
2009,08,20,04,51,19.90
2009,08,20,04,52,19.90
2009,08,20,04,53,19.90
2009,08,20,04,54,19.90
2009,08,20,04,55,19.90
2009,08,20,04,56,19.90
2009,08,20,04,57,19.90
2009,08,20,04,58,19.90
2009,08,20,04,59,20.00
2009,08,20,05,00,20.00
2009,08,20,05,01,20.00
2009,08,20,05,02,20.00
2009,08,20,05,03,20.00
2009,08,20,05,04,20.00
2009,08,20,05,05,20.00
2009,08,20,05,06,20.00
2009,08,20,05,07,19.90
2009,08,20,05,08,20.00
2009,08,20,05,09,19.90
2009,08,20,05,10,20.00
2009,08,20,05,11,20.00
2009,08,20,05,12,20.00
2009,08,20,05,13,20.00
2009,08,20,05,14,20.00
2009,08,20,05,15,20.00
2009,08,20,05,16,20.00
2009,08,20,05,17,19.90
2009,08,20,05,18,19.90
2009,08,20,05,19,19.90
2009,08,20,05,20,19.80
2009,08,20,05,21,19.80
2009,08,20,05,22,19.80
2009,08,20,05,23,19.70
2009,08,20,05,24,19.70
2009,08,20,05,25,19.70
2009,08,20,05,26,19.70
2009,08,20,05,27,19.60
2009,08,20,05,28,19.60
2009,08,20,05,29,19.50
2009,08,20,05,30,19.50
2009,08,20,05,31,19.50
2009,08,20,05,32,19.40
2009,08,20,05,33,19.40
2009,08,20,05,34,19.40
2009,08,20,05,35,19.40
2009,08,20,05,36,19.30
2009,08,20,05,37,19.30
2009,08,20,05,38,19.30
2009,08,20,05,39,19.20
2009,08,20,05,40,19.20
2009,08,20,05,41,19.20
2009,08,20,05,42,19.20
2009,08,20,05,43,19.10
2009,08,20,05,44,19.10
2009,08,20,05,45,19.10
2009,08,20,05,46,19.10
2009,08,20,05,47,19.00
2009,08,20,05,48,19.00
2009,08,20,05,49,19.00
2009,08,20,05,50,19.00
2009,08,20,05,51,19.00
2009,08,20,05,52,19.00
2009,08,20,05,53,19.00
2009,08,20,05,54,19.00
2009,08,20,05,55,19.00
2009,08,20,05,56,19.00
2009,08,20,05,57,19.00
2009,08,20,05,58,19.00
2009,08,20,05,59,19.00
2009,08,20,06,00,18.90
2009,08,20,06,01,18.90
2009,08,20,06,02,18.90
2009,08,20,06,03,18.90
2009,08,20,06,04,18.90
2009,08,20,06,05,18.90
2009,08,20,06,06,18.90
2009,08,20,06,07,18.90
2009,08,20,06,08,18.90
2009,08,20,06,09,18.90
2009,08,20,06,10,18.90
2009,08,20,06,11,18.90
2009,08,20,06,12,18.90
2009,08,20,06,13,18.90
2009,08,20,06,14,18.90
2009,08,20,06,15,18.90
2009,08,20,06,16,18.90
2009,08,20,06,17,18.90
2009,08,20,06,18,18.90
2009,08,20,06,19,18.90
2009,08,20,06,20,18.80
2009,08,20,06,21,18.80
2009,08,20,06,22,18.80
2009,08,20,06,23,18.80
2009,08,20,06,24,18.70
2009,08,20,06,25,18.70
2009,08,20,06,26,18.70
2009,08,20,06,27,18.70
2009,08,20,06,28,18.60
2009,08,20,06,29,18.60
2009,08,20,06,30,18.60
2009,08,20,06,31,18.50
2009,08,20,06,32,18.50
2009,08,20,06,33,18.50
2009,08,20,06,34,18.40
2009,08,20,06,35,18.40
2009,08,20,06,36,18.40
2009,08,20,06,37,18.40
2009,08,20,06,38,18.30
2009,08,20,06,39,18.30
2009,08,20,06,40,18.30
2009,08,20,06,41,18.20
2009,08,20,06,42,18.20
2009,08,20,06,43,18.20
2009,08,20,06,44,18.20
2009,08,20,06,45,18.10
2009,08,20,06,46,18.10
2009,08,20,06,47,18.10
2009,08,20,06,48,18.00
2009,08,20,06,49,17.90
2009,08,20,06,50,17.90
2009,08,20,06,51,17.90
2009,08,20,06,52,17.80
2009,08,20,06,53,17.80
2009,08,20,06,54,17.80
2009,08,20,06,55,17.80
2009,08,20,06,56,17.80
2009,08,20,06,57,17.80
2009,08,20,06,58,17.80
2009,08,20,06,59,17.80
2009,08,20,07,00,17.80
2009,08,20,07,01,17.80
2009,08,20,07,02,17.80
2009,08,20,07,03,17.80
2009,08,20,07,04,17.90
2009,08,20,07,05,17.80
2009,08,20,07,06,17.80
2009,08,20,07,07,17.80
2009,08,20,07,08,17.80
2009,08,20,07,09,17.90
2009,08,20,07,10,17.90
2009,08,20,07,11,18.00
2009,08,20,07,12,18.00
2009,08,20,07,13,18.00
2009,08,20,07,14,18.10
2009,08,20,07,15,18.10
2009,08,20,07,16,18.20
2009,08,20,07,17,18.20
2009,08,20,07,18,18.30
2009,08,20,07,19,18.30
2009,08,20,07,20,18.40
2009,08,20,07,21,18.50
2009,08,20,07,22,18.60
2009,08,20,07,23,18.70
2009,08,20,07,24,18.80
2009,08,20,07,25,18.90
2009,08,20,07,26,19.00
2009,08,20,07,27,19.10
2009,08,20,07,28,19.20
2009,08,20,07,29,19.30
2009,08,20,07,30,19.30
2009,08,20,07,31,19.30
2009,08,20,07,32,19.40
2009,08,20,07,33,19.40
2009,08,20,07,34,19.40
2009,08,20,07,35,19.30
2009,08,20,07,36,19.30
2009,08,20,07,37,19.20
2009,08,20,07,38,19.10
2009,08,20,07,39,19.00
2009,08,20,07,40,18.90
2009,08,20,07,41,18.90
2009,08,20,07,42,18.80
2009,08,20,07,43,18.80
2009,08,20,07,44,18.80
2009,08,20,07,45,18.70
2009,08,20,07,46,18.70
2009,08,20,07,47,18.70
2009,08,20,07,48,18.70
2009,08,20,07,49,18.70
2009,08,20,07,50,18.70
2009,08,20,07,51,18.70
2009,08,20,07,52,18.70
2009,08,20,07,53,18.70
2009,08,20,07,54,18.60
2009,08,20,07,55,18.60
2009,08,20,07,56,18.60
2009,08,20,07,57,18.60
2009,08,20,07,58,18.70
2009,08,20,07,59,18.70
2009,08,20,08,00,18.70
2009,08,20,08,01,18.80
2009,08,20,08,02,18.80
2009,08,20,08,03,18.80
2009,08,20,08,04,18.80
2009,08,20,08,05,18.90
2009,08,20,08,06,18.90
2009,08,20,08,07,18.90
2009,08,20,08,08,18.90
2009,08,20,08,09,18.90
2009,08,20,08,10,19.00
2009,08,20,08,11,19.00
2009,08,20,08,12,19.10
2009,08,20,08,13,19.10
2009,08,20,08,14,19.10
2009,08,20,08,15,19.10
2009,08,20,08,16,19.10
2009,08,20,08,17,19.00
2009,08,20,08,18,19.00
2009,08,20,08,19,19.10
2009,08,20,08,20,19.10
2009,08,20,08,21,19.10
2009,08,20,08,22,19.20
2009,08,20,08,23,19.30
2009,08,20,08,24,19.30
2009,08,20,08,25,19.40
2009,08,20,08,26,19.50
2009,08,20,08,27,19.60
2009,08,20,08,28,19.70
2009,08,20,08,29,19.80
2009,08,20,08,30,19.80
2009,08,20,08,31,20.00
2009,08,20,08,32,20.10
2009,08,20,08,33,20.20
2009,08,20,08,34,20.20
2009,08,20,08,35,20.30
2009,08,20,08,36,20.40
2009,08,20,08,37,20.50
2009,08,20,08,38,20.50
2009,08,20,08,39,20.60
2009,08,20,08,40,20.60
2009,08,20,08,41,20.60
2009,08,20,08,42,20.60
2009,08,20,08,43,20.60
2009,08,20,08,44,20.60
2009,08,20,08,45,20.60
2009,08,20,08,46,20.60
2009,08,20,08,47,20.60
2009,08,20,08,48,20.60
2009,08,20,08,49,20.60
2009,08,20,08,50,20.70
2009,08,20,08,51,20.70
2009,08,20,08,52,20.70
2009,08,20,08,53,20.80
2009,08,20,08,54,20.80
2009,08,20,08,55,20.90
2009,08,20,08,56,20.90
2009,08,20,08,57,21.00
2009,08,20,08,58,21.00
2009,08,20,08,59,21.10
2009,08,20,09,00,21.10
2009,08,20,09,01,21.10
2009,08,20,09,02,21.10
2009,08,20,09,03,21.10
2009,08,20,09,04,21.00
2009,08,20,09,05,21.00
2009,08,20,09,06,21.10
2009,08,20,09,07,21.10
2009,08,20,09,08,21.10
2009,08,20,09,09,21.10
2009,08,20,09,10,21.20
2009,08,20,09,11,21.20
2009,08,20,09,12,21.20
2009,08,20,09,13,21.20
2009,08,20,09,14,21.20
2009,08,20,09,15,21.20
2009,08,20,09,16,21.20
2009,08,20,09,17,21.20
2009,08,20,09,18,21.20
2009,08,20,09,19,21.10
2009,08,20,09,20,21.10
2009,08,20,09,21,21.10
2009,08,20,09,22,21.10
2009,08,20,09,23,21.10
2009,08,20,09,24,21.10
2009,08,20,09,25,21.20
2009,08,20,09,26,21.20
2009,08,20,09,27,21.30
2009,08,20,09,28,21.30
2009,08,20,09,29,21.30
2009,08,20,09,30,21.40
2009,08,20,09,31,21.50
2009,08,20,09,32,21.60
2009,08,20,09,33,21.70
2009,08,20,09,34,21.70
2009,08,20,09,35,21.70
2009,08,20,09,36,21.70
2009,08,20,09,37,21.70
2009,08,20,09,38,21.70
2009,08,20,09,39,21.70
2009,08,20,09,40,21.80
2009,08,20,09,41,21.80
2009,08,20,09,42,21.80
2009,08,20,09,43,21.80
2009,08,20,09,44,21.80
2009,08,20,09,45,21.80
2009,08,20,09,46,21.80
2009,08,20,09,47,21.80
2009,08,20,09,48,21.90
2009,08,20,09,49,22.00
2009,08,20,09,50,22.00
2009,08,20,09,51,22.10
2009,08,20,09,52,22.20
2009,08,20,09,53,22.20
2009,08,20,09,54,22.20
2009,08,20,09,55,22.30
2009,08,20,09,56,22.30
2009,08,20,09,57,22.30
2009,08,20,09,58,22.40
2009,08,20,09,59,22.40
2009,08,20,10,00,22.50
2009,08,20,10,01,22.50
2009,08,20,10,02,22.60
2009,08,20,10,03,22.60
2009,08,20,10,04,22.70
2009,08,20,10,05,22.70
2009,08,20,10,06,22.70
2009,08,20,10,07,22.80
2009,08,20,10,08,22.90
2009,08,20,10,09,22.90
2009,08,20,10,10,23.00
2009,08,20,10,11,23.00
2009,08,20,10,12,23.10
2009,08,20,10,13,23.10
2009,08,20,10,14,23.20
2009,08,20,10,15,23.30
2009,08,20,10,16,23.30
2009,08,20,10,17,23.40
2009,08,20,10,18,23.40
2009,08,20,10,19,23.50
2009,08,20,10,20,23.60
2009,08,20,10,21,23.50
2009,08,20,10,22,23.50
2009,08,20,10,23,23.50
2009,08,20,10,24,23.60
2009,08,20,10,25,23.70
2009,08,20,10,26,23.70
2009,08,20,10,27,23.70
2009,08,20,10,28,23.70
2009,08,20,10,29,23.80
2009,08,20,10,30,23.90
2009,08,20,10,31,23.80
2009,08,20,10,32,23.90
2009,08,20,10,33,23.90
2009,08,20,10,34,24.00
2009,08,20,10,35,24.00
2009,08,20,10,36,24.10
2009,08,20,10,37,24.10
2009,08,20,10,38,24.10
2009,08,20,10,39,24.10
2009,08,20,10,40,24.10
2009,08,20,10,41,24.10
2009,08,20,10,42,24.10
2009,08,20,10,43,24.20
2009,08,20,10,44,24.30
2009,08,20,10,45,24.30
2009,08,20,10,46,24.30
2009,08,20,10,47,24.30
2009,08,20,10,48,24.30
2009,08,20,10,49,24.20
2009,08,20,10,50,24.10
2009,08,20,10,51,24.10
2009,08,20,10,52,24.10
2009,08,20,10,53,24.10
2009,08,20,10,54,24.30
2009,08,20,10,55,24.30
2009,08,20,10,56,24.30
2009,08,20,10,57,24.40
2009,08,20,10,58,24.40
2009,08,20,10,59,24.50
2009,08,20,11,00,24.50
2009,08,20,11,01,24.60
2009,08,20,11,02,24.60
2009,08,20,11,03,24.60
2009,08,20,11,04,24.60
2009,08,20,11,05,24.60
2009,08,20,11,06,24.60
2009,08,20,11,07,24.50
2009,08,20,11,08,24.50
2009,08,20,11,09,24.60
2009,08,20,11,10,24.60
2009,08,20,11,11,24.80
2009,08,20,11,12,24.90
2009,08,20,11,13,24.90
2009,08,20,11,14,25.00
2009,08,20,11,15,25.10
2009,08,20,11,16,25.20
2009,08,20,11,17,25.20
2009,08,20,11,18,25.10
2009,08,20,11,19,25.00
2009,08,20,11,20,24.90
2009,08,20,11,21,24.90
2009,08,20,11,22,24.90
2009,08,20,11,23,24.90
2009,08,20,11,24,25.00
2009,08,20,11,25,25.10
2009,08,20,11,26,25.20
2009,08,20,11,27,25.30
2009,08,20,11,28,25.40
2009,08,20,11,29,25.40
2009,08,20,11,30,25.40
2009,08,20,11,31,25.30
2009,08,20,11,32,25.30
2009,08,20,11,33,25.20
2009,08,20,11,34,25.20
2009,08,20,11,35,25.10
2009,08,20,11,36,25.00
2009,08,20,11,37,24.90
2009,08,20,11,38,25.00
2009,08,20,11,39,25.00
2009,08,20,11,40,25.00
2009,08,20,11,41,25.10
2009,08,20,11,42,25.10
2009,08,20,11,43,25.10
2009,08,20,11,44,25.20
2009,08,20,11,45,25.20
2009,08,20,11,46,25.20
2009,08,20,11,47,25.20
2009,08,20,11,48,25.30
2009,08,20,11,49,25.40
2009,08,20,11,50,25.40
2009,08,20,11,51,25.40
2009,08,20,11,52,25.40
2009,08,20,11,53,25.50
2009,08,20,11,54,25.60
2009,08,20,11,55,25.70
2009,08,20,11,56,25.80
2009,08,20,11,57,25.70
2009,08,20,11,58,25.70
2009,08,20,11,59,25.60
2009,08,20,12,00,25.60
2009,08,20,12,01,25.40
2009,08,20,12,02,25.40
2009,08,20,12,03,25.30
2009,08,20,12,04,25.20
2009,08,20,12,05,25.20
2009,08,20,12,06,25.30
2009,08,20,12,07,25.30
2009,08,20,12,08,25.30
2009,08,20,12,09,25.40
2009,08,20,12,10,25.50
2009,08,20,12,11,25.50
2009,08,20,12,12,25.40
2009,08,20,12,13,25.30
2009,08,20,12,14,25.30
2009,08,20,12,15,25.20
2009,08,20,12,16,25.10
2009,08,20,12,17,25.20
2009,08,20,12,18,25.30
2009,08,20,12,19,25.30
2009,08,20,12,20,25.40
2009,08,20,12,21,25.30
2009,08,20,12,22,25.40
2009,08,20,12,23,25.40
2009,08,20,12,24,25.40
2009,08,20,12,25,25.30
2009,08,20,12,26,25.30
2009,08,20,12,27,25.30
2009,08,20,12,28,25.30
2009,08,20,12,29,25.30
2009,08,20,12,30,25.30
2009,08,20,12,31,25.30
2009,08,20,12,32,25.40
2009,08,20,12,33,25.40
2009,08,20,12,34,25.40
2009,08,20,12,35,25.40
2009,08,20,12,36,25.40
2009,08,20,12,37,25.40
2009,08,20,12,38,25.40
2009,08,20,12,39,25.50
2009,08,20,12,40,25.60
2009,08,20,12,41,25.70
2009,08,20,12,42,25.90
2009,08,20,12,43,25.90
2009,08,20,12,44,26.00
2009,08,20,12,45,25.90
2009,08,20,12,46,25.90
2009,08,20,12,47,25.70
2009,08,20,12,48,25.70
2009,08,20,12,49,25.60
2009,08,20,12,50,25.50
2009,08,20,12,51,25.60
2009,08,20,12,52,25.60
2009,08,20,12,53,25.60
2009,08,20,12,54,25.60
2009,08,20,12,55,25.60
2009,08,20,12,56,25.60
2009,08,20,12,57,25.50
2009,08,20,12,58,25.40
2009,08,20,12,59,25.50
2009,08,20,13,00,25.50
2009,08,20,13,01,25.60
2009,08,20,13,02,25.70
2009,08,20,13,03,25.70
2009,08,20,13,04,25.80
2009,08,20,13,05,25.80
2009,08,20,13,06,25.80
2009,08,20,13,07,25.80
2009,08,20,13,08,25.80
2009,08,20,13,09,25.90
2009,08,20,13,10,25.90
2009,08,20,13,11,25.90
2009,08,20,13,12,25.90
2009,08,20,13,13,25.90
2009,08,20,13,14,25.90
2009,08,20,13,15,25.90
2009,08,20,13,16,25.90
2009,08,20,13,17,25.90
2009,08,20,13,18,25.90
2009,08,20,13,19,25.90
2009,08,20,13,20,25.90
2009,08,20,13,21,25.90
2009,08,20,13,22,25.90
2009,08,20,13,23,25.90
2009,08,20,13,24,25.80
2009,08,20,13,25,25.70
2009,08,20,13,26,25.70
2009,08,20,13,27,25.70
2009,08,20,13,28,25.60
2009,08,20,13,29,25.60
2009,08,20,13,30,25.70
2009,08,20,13,31,25.80
2009,08,20,13,32,25.90
2009,08,20,13,33,25.90
2009,08,20,13,34,26.00
2009,08,20,13,35,26.00
2009,08,20,13,36,26.00
2009,08,20,13,37,25.90
2009,08,20,13,38,25.90
2009,08,20,13,39,26.00
2009,08,20,13,40,26.10
2009,08,20,13,41,26.20
2009,08,20,13,42,26.20
2009,08,20,13,43,26.20
2009,08,20,13,44,26.20
2009,08,20,13,45,26.20
2009,08,20,13,46,26.20
2009,08,20,13,47,26.20
2009,08,20,13,48,26.20
2009,08,20,13,49,26.20
2009,08,20,13,50,26.10
2009,08,20,13,51,25.90
2009,08,20,13,52,25.90
2009,08,20,13,53,25.90
2009,08,20,13,54,25.80
2009,08,20,13,55,25.70
2009,08,20,13,56,25.50
2009,08,20,13,57,25.30
2009,08,20,13,58,25.40
2009,08,20,13,59,25.40
2009,08,20,14,00,25.30
2009,08,20,14,01,25.30
2009,08,20,14,02,25.30
2009,08,20,14,03,25.30
2009,08,20,14,04,25.40
2009,08,20,14,05,25.40
2009,08,20,14,06,25.50
2009,08,20,14,07,25.50
2009,08,20,14,08,25.50
2009,08,20,14,09,25.50
2009,08,20,14,10,25.60
2009,08,20,14,11,25.70
2009,08,20,14,12,25.70
2009,08,20,14,13,25.70
2009,08,20,14,14,25.60
2009,08,20,14,15,25.60
2009,08,20,14,16,25.50
2009,08,20,14,17,25.50
2009,08,20,14,18,25.50
2009,08,20,14,19,25.50
2009,08,20,14,20,25.40
2009,08,20,14,21,25.30
2009,08,20,14,22,25.30
2009,08,20,14,23,25.30
2009,08,20,14,24,25.40
2009,08,20,14,25,25.40
2009,08,20,14,26,25.30
2009,08,20,14,27,25.30
2009,08,20,14,28,25.20
2009,08,20,14,29,25.10
2009,08,20,14,30,25.00
2009,08,20,14,31,24.90
2009,08,20,14,32,24.90
2009,08,20,14,33,24.90
2009,08,20,14,34,25.00
2009,08,20,14,35,25.00
2009,08,20,14,36,25.00
2009,08,20,14,37,25.00
2009,08,20,14,38,25.00
2009,08,20,14,39,24.90
2009,08,20,14,40,24.90
2009,08,20,14,41,24.90
2009,08,20,14,42,24.90
2009,08,20,14,43,24.90
2009,08,20,14,44,24.80
2009,08,20,14,45,24.70
2009,08,20,14,46,24.80
2009,08,20,14,47,24.80
2009,08,20,14,48,24.90
2009,08,20,14,49,24.90
2009,08,20,14,50,24.80
2009,08,20,14,51,24.70
2009,08,20,14,52,24.60
2009,08,20,14,53,24.50
2009,08,20,14,54,24.40
2009,08,20,14,55,24.30
2009,08,20,14,56,24.30
2009,08,20,14,57,24.30
2009,08,20,14,58,24.30
2009,08,20,14,59,24.30
2009,08,20,15,00,24.30
2009,08,20,15,01,24.30
2009,08,20,15,02,24.30
2009,08,20,15,03,24.30
2009,08,20,15,04,24.30
2009,08,20,15,05,24.20
2009,08,20,15,06,24.20
2009,08,20,15,07,24.10
2009,08,20,15,08,24.20
2009,08,20,15,09,24.20
2009,08,20,15,10,24.20
2009,08,20,15,11,24.20
2009,08,20,15,12,24.20
2009,08,20,15,13,24.30
2009,08,20,15,14,24.30
2009,08,20,15,15,24.30
2009,08,20,15,16,24.30
2009,08,20,15,17,24.30
2009,08,20,15,18,24.30
2009,08,20,15,19,24.30
2009,08,20,15,20,24.30
2009,08,20,15,21,24.30
2009,08,20,15,22,24.20
2009,08,20,15,23,24.10
2009,08,20,15,24,24.00
2009,08,20,15,25,23.90
2009,08,20,15,26,23.80
2009,08,20,15,27,23.80
2009,08,20,15,28,23.80
2009,08,20,15,29,23.90
2009,08,20,15,30,23.90
2009,08,20,15,31,24.10
2009,08,20,15,32,24.20
2009,08,20,15,33,24.20
2009,08,20,15,34,24.30
2009,08,20,15,35,24.30
2009,08,20,15,36,24.30
2009,08,20,15,37,24.30
2009,08,20,15,38,24.20
2009,08,20,15,39,24.20
2009,08,20,15,40,24.20
2009,08,20,15,41,24.10
2009,08,20,15,42,24.10
2009,08,20,15,43,24.00
2009,08,20,15,44,23.90
2009,08,20,15,45,23.80
2009,08,20,15,46,23.70
2009,08,20,15,47,23.60
2009,08,20,15,48,23.50
2009,08,20,15,49,23.50
2009,08,20,15,50,23.40
2009,08,20,15,51,23.40
2009,08,20,15,52,23.40
2009,08,20,15,53,23.50
2009,08,20,15,54,23.50
2009,08,20,15,55,23.60
2009,08,20,15,56,23.70
2009,08,20,15,57,23.70
2009,08,20,15,58,23.70
2009,08,20,15,59,23.70
2009,08,20,16,00,23.60
2009,08,20,16,01,23.60
2009,08,20,16,02,23.60
2009,08,20,16,03,23.60
2009,08,20,16,04,23.70
2009,08,20,16,05,23.70
2009,08,20,16,06,23.80
2009,08,20,16,07,23.80
2009,08,20,16,08,23.80
2009,08,20,16,09,23.90
2009,08,20,16,10,23.90
2009,08,20,16,11,23.90
2009,08,20,16,12,23.90
2009,08,20,16,13,23.90
2009,08,20,16,14,23.80
2009,08,20,16,15,23.70
2009,08,20,16,16,23.70
2009,08,20,16,17,23.60
2009,08,20,16,18,23.50
2009,08,20,16,19,23.50
2009,08,20,16,20,23.60
2009,08,20,16,21,23.60
2009,08,20,16,22,23.70
2009,08,20,16,23,23.80
2009,08,20,16,24,23.80
2009,08,20,16,25,23.80
2009,08,20,16,26,23.80
2009,08,20,16,27,23.80
2009,08,20,16,28,23.70
2009,08,20,16,29,23.70
2009,08,20,16,30,23.70
2009,08,20,16,31,23.80
2009,08,20,16,32,23.80
2009,08,20,16,33,23.80
2009,08,20,16,34,23.90
2009,08,20,16,35,23.90
2009,08,20,16,36,23.80
2009,08,20,16,37,23.80
2009,08,20,16,38,23.90
2009,08,20,16,39,23.90
2009,08,20,16,40,23.90
2009,08,20,16,41,23.90
2009,08,20,16,42,23.80
2009,08,20,16,43,23.80
2009,08,20,16,44,23.70
2009,08,20,16,45,23.60
2009,08,20,16,46,23.60
2009,08,20,16,47,23.60
2009,08,20,16,48,23.60
2009,08,20,16,49,23.70
2009,08,20,16,50,23.70
2009,08,20,16,51,23.70
2009,08,20,16,52,23.70
2009,08,20,16,53,23.70
2009,08,20,16,54,23.70
2009,08,20,16,55,23.70
2009,08,20,16,56,23.60
2009,08,20,16,57,23.70
2009,08,20,16,58,23.80
2009,08,20,16,59,23.90
2009,08,20,17,00,23.90
2009,08,20,17,01,24.00
2009,08,20,17,02,24.10
2009,08,20,17,03,24.10
2009,08,20,17,04,24.20
2009,08,20,17,05,24.10
2009,08,20,17,06,24.20
2009,08,20,17,07,24.30
2009,08,20,17,08,24.30
2009,08,20,17,09,24.30
2009,08,20,17,10,24.20
2009,08,20,17,11,24.20
2009,08,20,17,12,24.20
2009,08,20,17,13,24.20
2009,08,20,17,14,24.20
2009,08,20,17,15,24.30
2009,08,20,17,16,24.30
2009,08,20,17,17,24.40
2009,08,20,17,18,24.50
2009,08,20,17,19,24.60